FENGYUN 1C DEB, 29965

Orbit data source: Space-Track

FENGYUN 1C DEB, 29965 is space debris in SSO originally from a launch on Mon, 10 May 1999 UTC launched from the Taiyaun Space Center, China (TSC). Fengyun 1C debris stems from the Chinese weather satellite Fengyun-1C, which was intentionally destroyed by a Chinese anti-satellite missile in 2007. This event dramatically increased the amount of space debris, with thousands of trackable fragments posing hazards to satellites and human spaceflight. The Fengyun 1C debris cloud has become a focal point in discussions about space sustainability and the need for international regulations to prevent the creation of new debris.

Loading next visibility...
Identifier
29965, 1999-025KP
Orbit
SSO
Country
Flag of CNCN / PRC
Related business
Manufacturer
Unknown
Mission
Spacecraft
Bus & Motor
Unknown
Mass
Unknown
Launch date (UTC)
1999-05-10 (27 years ago)
Launch vehicle
Unknown
Launch site
Taiyaun Space Center, China (TSC)
Object type
Payload
Rocket body
Debris
Shape & HBR
Unknown shape, 0.2 m
Radar Cross Section
Small (<0.1 m²)

Expand to show TLE details & history
Last TLE update: 10 hours ago

TLE from 10 hours ago
0 FENGYUN 1C DEB
1 29965U 99025KP  25353.49360611  .00000013  00000-0  36920-4 0  9992
2 29965  98.9626 347.9420 0145892  49.5684  99.7373 13.95778130963704
Epoch: 2025-12-19T11:50Z
TLE epoch observation values (Epoch: 2025-12-19T11:50:47.567Z)
Latitude
28.70979°
Longitude
-93.16062°
Altitude
931.448 km
Speed
7.379 km/s
True Right ascension
11h 31m 29s
True Declination
28° 34' 07"
Sunlit
Object was in daylight at epoch
Visualization orbit readout
Latitude
Unknown
Longitude
Unknown
Altitude
Unknown
Speed
Unknown
Apparent Right ascension
Unknown
Apparent Declination
Unknown
Sunlit
N/A
Visualization observer readout
Local Sidereal Time
20:37:38
Azimuth
Unknown
Elevation
Unknown
Doppler factor
Unknown
Orbital elements
Apogee altitude
1,011.919 km
Perigee altitude
799.389 km
Semi-major axis
7,283.791 km
Eccentricity
0.01459
Inclination
98.9626°
RAAN
347.942°
Arg. of periapsis
49.5684°
True anomaly
101.37972°
Mean anomaly
99.7373°
Eccentric anomaly
100.55904°
Mean motion
3.49146 °/min
Orbital period
103.11 mins
BSTAR
0.00003692
Loading maneuver chart data...
Computing Atmospheric mass density...

Documentation

Showing up to 5 results
|